Time,TemperatureF,DewpointF,PressureIn,WindDirection,WindDirectionDegrees,WindSpeedMPH,WindSpeedGustMPH,Humidity,HourlyPrecipIn,Conditions,Clouds,dailyrainin,SoftwareType,DateUTC
2013-09-26 00:01:00,53.2,48.2,29.91,NNE,22,0.0,0.0,83,0.00,CLR,,0.00,WeatherDisplay:10.37,2013-09-26 04:01:00,
2013-09-26 00:06:00,53.2,48.2,29.90,NNE,22,0.0,0.0,83,0.00,CLR,,0.00,WeatherDisplay:10.37,2013-09-26 04:06:00,
2013-09-26 00:11:00,53.2,48.2,29.90,NNE,22,0.0,0.0,83,0.00,CLR,,0.00,WeatherDisplay:10.37,2013-09-26 04:11:00,
2013-09-26 00:16:00,53.1,48.0,29.90,NNE,22,0.0,0.0,83,0.00,CLR,,0.00,WeatherDisplay:10.37,2013-09-26 04:16:00,
2013-09-26 00:21:00,53.1,48.0,29.90,NNE,22,0.0,0.0,83,0.00,CLR,,0.00,WeatherDisplay:10.37,2013-09-26 04:21:00,
2013-09-26 00:26:00,53.2,48.2,29.90,NNE,22,0.0,0.0,83,0.00,CLR,,0.00,WeatherDisplay:10.37,2013-09-26 04:26:00,
2013-09-26 00:31:00,53.2,48.2,29.91,NNE,22,0.0,0.0,83,0.00,CLR,,0.00,WeatherDisplay:10.37,2013-09-26 04:31:00,
2013-09-26 00:36:00,53.4,48.7,29.91,NNE,22,0.0,0.0,84,0.00,CLR,,0.00,WeatherDisplay:10.37,2013-09-26 04:36:00,
2013-09-26 00:41:00,53.4,48.7,29.90,NNE,22,0.0,0.0,84,0.00,CLR,,0.00,WeatherDisplay:10.37,2013-09-26 04:41:00,
2013-09-26 00:46:00,53.4,48.7,29.90,NNE,22,0.0,0.0,84,0.00,CLR,,0.00,WeatherDisplay:10.37,2013-09-26 04:46:00,
2013-09-26 00:51:00,53.4,48.7,29.90,NNE,22,0.0,0.0,84,0.00,CLR,,0.00,WeatherDisplay:10.37,2013-09-26 04:51:00,
2013-09-26 00:56:00,53.4,48.7,29.90,NNE,22,0.0,0.0,84,0.00,CLR,,0.00,WeatherDisplay:10.37,2013-09-26 04:56:00,
2013-09-26 01:01:00,53.2,48.5,29.90,NNE,22,0.0,0.0,84,0.00,CLR,,0.00,WeatherDisplay:10.37,2013-09-26 05:01:00,
2013-09-26 01:06:00,53.2,48.5,29.90,NNE,22,0.0,0.0,84,0.00,CLR,,0.00,WeatherDisplay:10.37,2013-09-26 05:06:00,
2013-09-26 01:11:00,53.2,48.5,29.90,NNE,22,0.0,0.0,84,0.00,CLR,,0.00,WeatherDisplay:10.37,2013-09-26 05:11:00,
2013-09-26 01:16:00,53.1,48.4,29.91,NNE,22,0.0,0.0,84,0.00,CLR,,0.00,WeatherDisplay:10.37,2013-09-26 05:16:00,
2013-09-26 01:21:00,52.9,48.2,29.91,NNE,22,0.0,0.0,84,0.00,CLR,,0.00,WeatherDisplay:10.37,2013-09-26 05:21:00,
2013-09-26 01:26:00,52.9,48.2,29.91,NNE,22,0.0,0.0,84,0.00,CLR,,0.00,WeatherDisplay:10.37,2013-09-26 05:26:00,
2013-09-26 01:31:00,52.9,48.2,29.91,NNE,22,0.0,0.0,84,0.00,CLR,,0.00,WeatherDisplay:10.37,2013-09-26 05:31:00,
2013-09-26 01:36:00,52.9,48.2,29.91,NNE,22,0.0,0.0,84,0.00,CLR,,0.00,WeatherDisplay:10.37,2013-09-26 05:36:00,
2013-09-26 01:41:00,52.9,48.2,29.91,NNE,22,0.0,0.0,84,0.00,CLR,,0.00,WeatherDisplay:10.37,2013-09-26 05:41:00,
2013-09-26 01:46:00,52.9,48.2,29.90,NNE,22,0.0,0.0,84,0.00,CLR,,0.00,WeatherDisplay:10.37,2013-09-26 05:46:00,
2013-09-26 01:51:00,52.9,48.5,29.91,NNE,22,0.0,0.0,85,0.00,CLR,,0.00,WeatherDisplay:10.37,2013-09-26 05:51:00,
2013-09-26 01:56:00,52.9,48.5,29.90,NNE,22,0.0,0.0,85,0.00,CLR,,0.00,WeatherDisplay:10.37,2013-09-26 05:56:00,
2013-09-26 02:01:00,52.9,48.5,29.90,NNE,22,0.0,0.0,85,0.00,CLR,,0.00,WeatherDisplay:10.37,2013-09-26 06:01:00,
2013-09-26 02:06:00,52.9,48.5,29.90,NNE,22,0.0,0.0,85,0.00,CLR,,0.00,WeatherDisplay:10.37,2013-09-26 06:06:00,
2013-09-26 02:11:00,52.9,48.5,29.90,NNE,22,0.0,0.0,85,0.00,CLR,,0.00,WeatherDisplay:10.37,2013-09-26 06:11:00,
2013-09-26 02:16:00,52.9,48.5,29.90,NNE,22,0.0,0.0,85,0.00,CLR,,0.00,WeatherDisplay:10.37,2013-09-26 06:16:00,
2013-09-26 02:21:00,52.9,48.5,29.90,NNE,22,0.0,0.0,85,0.00,CLR,,0.00,WeatherDisplay:10.37,2013-09-26 06:21:00,
2013-09-26 02:26:00,52.9,48.5,29.90,NNE,22,0.0,0.0,85,0.00,CLR,,0.00,WeatherDisplay:10.37,2013-09-26 06:26:00,
2013-09-26 02:31:00,52.9,48.5,29.91,North,0,0.0,0.0,85,0.00,CLR,,0.00,WeatherDisplay:10.37,2013-09-26 06:31:00,
2013-09-26 02:36:00,52.9,48.5,29.90,North,0,0.0,0.0,85,0.00,CLR,,0.00,WeatherDisplay:10.37,2013-09-26 06:36:00,
2013-09-26 02:41:00,52.9,48.5,29.90,North,0,0.0,0.0,85,0.00,CLR,,0.00,WeatherDisplay:10.37,2013-09-26 06:41:00,
2013-09-26 02:46:00,52.9,48.5,29.90,North,0,0.0,0.0,85,0.00,CLR,,0.00,WeatherDisplay:10.37,2013-09-26 06:46:00,
2013-09-26 02:51:00,53.1,49.0,29.90,North,0,0.0,0.0,86,0.00,CLR,,0.00,WeatherDisplay:10.37,2013-09-26 06:51:00,
2013-09-26 02:56:00,53.1,49.0,29.90,North,0,0.0,0.0,86,0.00,CLR,,0.00,WeatherDisplay:10.37,2013-09-26 06:56:00,
2013-09-26 03:01:00,53.2,49.2,29.90,North,0,0.0,0.0,86,0.00,CLR,,0.00,WeatherDisplay:10.37,2013-09-26 07:01:00,
2013-09-26 03:06:00,53.2,49.2,29.90,North,0,0.0,0.0,86,0.00,CLR,,0.00,WeatherDisplay:10.37,2013-09-26 07:06:00,
2013-09-26 03:11:00,53.2,49.2,29.90,WSW,248,0.0,0.0,86,0.00,CLR,,0.00,WeatherDisplay:10.37,2013-09-26 07:11:00,
2013-09-26 03:16:00,53.4,49.3,29.90,WSW,248,0.0,0.0,86,0.00,CLR,,0.00,WeatherDisplay:10.37,2013-09-26 07:16:00,
2013-09-26 03:21:00,53.6,49.5,29.90,WSW,248,0.0,0.0,86,0.00,CLR,,0.00,WeatherDisplay:10.37,2013-09-26 07:21:00,
2013-09-26 03:26:00,53.6,49.5,29.90,WSW,248,0.0,0.0,86,0.00,CLR,,0.00,WeatherDisplay:10.37,2013-09-26 07:26:00,
2013-09-26 03:31:00,53.6,49.5,29.90,WSW,248,0.0,0.0,86,0.00,CLR,,0.00,WeatherDisplay:10.37,2013-09-26 07:31:00,
2013-09-26 03:36:00,53.8,49.7,29.90,NNW,338,0.0,0.0,86,0.00,CLR,,0.00,WeatherDisplay:10.37,2013-09-26 07:36:00,
2013-09-26 03:41:00,53.8,49.7,29.91,NNE,22,0.5,0.5,86,0.00,CLR,,0.00,WeatherDisplay:10.37,2013-09-26 07:41:00,
2013-09-26 03:46:00,54.0,49.9,29.91,NNE,22,0.0,0.0,86,0.00,CLR,,0.00,WeatherDisplay:10.37,2013-09-26 07:46:00,
2013-09-26 03:51:00,54.0,49.9,29.91,NNE,22,0.0,0.0,86,0.00,CLR,,0.00,WeatherDisplay:10.37,2013-09-26 07:51:00,
2013-09-26 03:56:00,54.0,49.9,29.91,NNE,22,0.0,0.0,86,0.00,CLR,,0.00,WeatherDisplay:10.37,2013-09-26 07:56:00,
2013-09-26 04:01:00,54.1,50.0,29.91,NNE,22,0.0,0.0,86,0.00,CLR,,0.00,WeatherDisplay:10.37,2013-09-26 08:01:00,
2013-09-26 04:06:00,54.1,50.0,29.91,NNE,22,0.0,0.0,86,0.00,CLR,,0.00,WeatherDisplay:10.37,2013-09-26 08:06:00,
2013-09-26 04:11:00,54.1,50.0,29.91,NNE,22,0.0,0.0,86,0.00,CLR,,0.00,WeatherDisplay:10.37,2013-09-26 08:11:00,
2013-09-26 04:16:00,54.3,50.2,29.91,NNE,22,0.0,0.0,86,0.00,CLR,,0.00,WeatherDisplay:10.37,2013-09-26 08:16:00,
2013-09-26 04:21:00,54.3,50.2,29.91,NNE,22,0.0,0.0,86,0.00,CLR,,0.00,WeatherDisplay:10.37,2013-09-26 08:21:00,
2013-09-26 04:26:00,54.3,50.2,29.91,NNE,22,0.0,0.0,86,0.00,CLR,,0.00,WeatherDisplay:10.37,2013-09-26 08:26:00,
2013-09-26 04:31:00,54.3,50.2,29.91,North,0,0.0,0.0,86,0.00,CLR,,0.00,WeatherDisplay:10.37,2013-09-26 08:31:00,
2013-09-26 04:36:00,54.3,50.2,29.91,North,0,0.0,0.0,86,0.00,CLR,,0.00,WeatherDisplay:10.37,2013-09-26 08:36:00,
2013-09-26 04:41:00,54.5,50.4,29.91,North,0,0.0,0.0,86,0.00,CLR,,0.00,WeatherDisplay:10.37,2013-09-26 08:41:00,
2013-09-26 04:46:00,54.5,50.4,29.91,NNW,338,0.0,0.2,86,0.00,CLR,,0.00,WeatherDisplay:10.37,2013-09-26 08:46:00,
2013-09-26 04:51:00,54.5,50.4,29.91,NNW,338,0.0,0.0,86,0.00,CLR,,0.00,WeatherDisplay:10.37,2013-09-26 08:51:00,
2013-09-26 04:56:00,54.5,50.4,29.91,WNW,292,0.0,0.0,86,0.00,CLR,,0.00,WeatherDisplay:10.37,2013-09-26 08:56:00,
2013-09-26 05:01:00,54.7,50.6,29.91,WNW,292,0.0,0.0,86,0.00,CLR,,0.00,WeatherDisplay:10.37,2013-09-26 09:01:00,
2013-09-26 05:06:00,54.7,50.6,29.91,North,0,0.5,0.5,86,0.00,CLR,,0.00,WeatherDisplay:10.37,2013-09-26 09:06:00,
2013-09-26 05:11:00,54.7,50.6,29.91,North,0,0.0,0.0,86,0.00,CLR,,0.00,WeatherDisplay:10.37,2013-09-26 09:11:00,
2013-09-26 05:16:00,54.7,50.6,29.91,North,0,0.0,0.0,86,0.00,CLR,,0.00,WeatherDisplay:10.37,2013-09-26 09:16:00,
2013-09-26 05:21:00,54.7,50.6,29.91,North,0,0.0,0.0,86,0.00,CLR,,0.00,WeatherDisplay:10.37,2013-09-26 09:21:00,
2013-09-26 05:26:00,54.7,50.6,29.91,North,0,0.0,0.0,86,0.00,CLR,,0.00,WeatherDisplay:10.37,2013-09-26 09:26:00,
2013-09-26 05:31:00,54.7,50.6,29.91,North,0,0.0,0.0,86,0.00,CLR,,0.00,WeatherDisplay:10.37,2013-09-26 09:31:00,
2013-09-26 05:36:00,54.7,50.6,29.91,NNW,338,0.0,0.0,86,0.00,CLR,,0.00,WeatherDisplay:10.37,2013-09-26 09:36:00,
2013-09-26 05:41:00,54.7,50.3,29.91,North,0,0.0,0.0,85,0.00,CLR,,0.00,WeatherDisplay:10.37,2013-09-26 09:41:00,
2013-09-26 05:46:00,54.7,50.3,29.92,WNW,292,0.0,0.0,85,0.00,CLR,,0.00,WeatherDisplay:10.37,2013-09-26 09:46:00,
2013-09-26 05:51:00,54.7,50.3,29.92,West,270,0.0,0.0,85,0.00,CLR,,0.00,WeatherDisplay:10.37,2013-09-26 09:51:00,
2013-09-26 05:56:00,54.7,50.3,29.92,ENE,68,0.5,0.5,85,0.00,CLR,,0.00,WeatherDisplay:10.37,2013-09-26 09:56:00,
2013-09-26 06:01:00,54.5,50.1,29.92,North,0,0.9,1.1,85,0.00,CLR,,0.00,WeatherDisplay:10.37,2013-09-26 10:01:00,
2013-09-26 06:06:00,54.5,50.1,29.92,ENE,68,0.5,0.5,85,0.00,CLR,,0.00,WeatherDisplay:10.37,2013-09-26 10:06:00,
2013-09-26 06:11:00,54.5,49.8,29.92,NNW,338,0.0,0.0,84,0.00,CLR,,0.00,WeatherDisplay:10.37,2013-09-26 10:11:00,
2013-09-26 06:16:00,54.3,49.6,29.92,NNE,22,0.0,0.0,84,0.00,CLR,,0.00,WeatherDisplay:10.37,2013-09-26 10:16:00,
2013-09-26 06:21:00,54.3,49.6,29.92,NW,315,0.0,2.3,84,0.00,CLR,,0.00,WeatherDisplay:10.37,2013-09-26 10:21:00,
2013-09-26 06:26:00,54.1,49.4,29.92,NE,45,0.2,1.1,84,0.00,CLR,,0.00,WeatherDisplay:10.37,2013-09-26 10:26:00,
2013-09-26 06:31:00,54.1,49.4,29.92,NNW,338,0.2,0.0,84,0.00,CLR,,0.00,WeatherDisplay:10.37,2013-09-26 10:31:00,
2013-09-26 06:36:00,54.0,48.9,29.93,NE,45,0.0,0.0,83,0.00,CLR,,0.00,WeatherDisplay:10.37,2013-09-26 10:36:00,
2013-09-26 06:41:00,54.0,48.9,29.93,NNE,22,0.0,0.0,83,0.00,CLR,,0.00,WeatherDisplay:10.37,2013-09-26 10:41:00,
2013-09-26 06:46:00,54.0,48.9,29.92,NNE,22,0.9,1.1,83,0.00,CLR,,0.00,WeatherDisplay:10.37,2013-09-26 10:46:00,
2013-09-26 06:51:00,54.0,48.9,29.93,NW,315,1.1,1.1,83,0.00,CLR,,0.00,WeatherDisplay:10.37,2013-09-26 10:51:00,
2013-09-26 06:56:00,54.0,48.9,29.93,NNW,338,0.5,1.1,83,0.00,CLR,,0.00,WeatherDisplay:10.37,2013-09-26 10:56:00,
2013-09-26 07:01:00,54.1,49.1,29.93,West,270,0.0,0.0,83,0.00,CLR,,0.00,WeatherDisplay:10.37,2013-09-26 11:01:00,
2013-09-26 07:06:00,54.3,48.9,29.93,NNW,338,3.8,3.8,82,0.00,CLR,,0.00,WeatherDisplay:10.37,2013-09-26 11:06:00,
2013-09-26 07:11:00,54.5,49.1,29.93,NE,45,0.5,1.1,82,0.00,CLR,,0.00,WeatherDisplay:10.37,2013-09-26 11:11:00,
2013-09-26 07:16:00,54.7,49.0,29.93,North,0,0.2,2.3,81,0.00,CLR,,0.00,WeatherDisplay:10.37,2013-09-26 11:16:00,
2013-09-26 07:21:00,54.9,49.1,29.93,WSW,248,1.1,1.1,81,0.00,CLR,,0.00,WeatherDisplay:10.37,2013-09-26 11:21:00,
2013-09-26 07:26:00,55.0,49.0,29.94,WNW,292,1.4,1.4,80,0.00,CLR,,0.00,WeatherDisplay:10.37,2013-09-26 11:26:00,
2013-09-26 07:31:00,55.4,49.3,29.94,ENE,68,0.0,1.1,80,0.00,CLR,,0.00,WeatherDisplay:10.37,2013-09-26 11:31:00,
2013-09-26 07:36:00,55.6,49.8,29.94,ENE,68,2.0,2.3,81,0.00,CLR,,0.00,WeatherDisplay:10.37,2013-09-26 11:36:00,
2013-09-26 07:41:00,55.9,49.5,29.94,ESE,112,0.5,0.5,79,0.00,CLR,,0.00,WeatherDisplay:10.37,2013-09-26 11:41:00,
2013-09-26 07:46:00,56.1,49.4,29.94,NNW,338,2.9,2.9,78,0.00,CLR,,0.00,WeatherDisplay:10.37,2013-09-26 11:46:00,
2013-09-26 07:51:00,56.5,49.7,29.94,NNE,22,1.6,2.3,78,0.00,CLR,,0.00,WeatherDisplay:10.37,2013-09-26 11:51:00,
2013-09-26 07:56:00,56.8,50.1,29.94,North,0,2.0,2.3,78,0.00,CLR,,0.00,WeatherDisplay:10.37,2013-09-26 11:56:00,
2013-09-26 08:01:00,56.8,49.7,29.94,NNW,338,0.5,0.5,77,0.00,CLR,,0.00,WeatherDisplay:10.37,2013-09-26 12:01:00,
2013-09-26 08:06:00,57.2,49.3,29.94,NNE,22,1.6,1.6,75,0.00,CLR,,0.00,WeatherDisplay:10.37,2013-09-26 12:06:00,
2013-09-26 08:11:00,57.4,48.8,29.94,NNW,338,2.4,2.4,73,0.00,CLR,,0.00,WeatherDisplay:10.37,2013-09-26 12:11:00,
2013-09-26 08:16:00,57.9,49.7,29.95,NE,45,0.9,2.3,74,0.00,CLR,,0.00,WeatherDisplay:10.37,2013-09-26 12:16:00,
2013-09-26 08:21:00,58.1,49.5,29.95,NNE,22,1.1,3.5,73,0.00,CLR,,0.00,WeatherDisplay:10.37,2013-09-26 12:21:00,
2013-09-26 08:26:00,58.3,49.7,29.95,NNE,22,2.2,2.3,73,0.00,CLR,,0.00,WeatherDisplay:10.37,2013-09-26 12:26:00,
2013-09-26 08:31:00,58.5,49.5,29.95,NNE,22,1.1,3.5,72,0.00,CLR,,0.00,WeatherDisplay:10.37,2013-09-26 12:31:00,
2013-09-26 08:36:00,58.6,48.1,29.95,NNW,338,5.9,5.9,68,0.00,CLR,,0.00,WeatherDisplay:10.37,2013-09-26 12:36:00,
2013-09-26 08:41:00,59.2,48.2,29.95,NNE,22,3.1,3.5,67,0.00,CLR,,0.00,WeatherDisplay:10.37,2013-09-26 12:41:00,
2013-09-26 08:46:00,59.4,48.8,29.95,NE,45,1.1,4.6,68,0.00,CLR,,0.00,WeatherDisplay:10.37,2013-09-26 12:46:00,
2013-09-26 08:51:00,59.4,48.8,29.95,WNW,292,3.6,3.6,68,0.00,CLR,,0.00,WeatherDisplay:10.37,2013-09-26 12:51:00,
2013-09-26 08:56:00,59.5,49.0,29.95,NW,315,2.0,2.3,68,0.00,CLR,,0.00,WeatherDisplay:10.37,2013-09-26 12:56:00,
2013-09-26 09:01:00,59.4,49.2,29.95,NNW,338,1.6,1.6,69,0.00,CLR,,0.00,WeatherDisplay:10.37,2013-09-26 13:01:00,
2013-09-26 09:06:00,59.5,49.0,29.95,NNW,338,1.8,5.8,68,0.00,CLR,,0.00,WeatherDisplay:10.37,2013-09-26 13:06:00,
2013-09-26 09:11:00,59.4,49.2,29.95,NE,45,1.6,3.5,69,0.00,CLR,,0.00,WeatherDisplay:10.37,2013-09-26 13:11:00,
2013-09-26 09:16:00,59.4,48.8,29.96,NNE,22,1.8,6.9,68,0.00,CLR,,0.00,WeatherDisplay:10.37,2013-09-26 13:16:00,
2013-09-26 09:21:00,59.4,48.4,29.96,North,0,1.4,4.6,67,0.00,CLR,,0.00,WeatherDisplay:10.37,2013-09-26 13:21:00,
2013-09-26 09:26:00,59.4,47.6,29.95,ENE,68,4.7,4.7,65,0.00,CLR,,0.00,WeatherDisplay:10.37,2013-09-26 13:26:00,
2013-09-26 09:31:00,59.7,48.3,29.96,ENE,68,4.3,4.6,66,0.00,CLR,,0.00,WeatherDisplay:10.37,2013-09-26 13:31:00,
2013-09-26 09:36:00,60.1,48.3,29.96,NNE,22,1.6,6.9,65,0.00,CLR,,0.00,WeatherDisplay:10.37,2013-09-26 13:36:00,
2013-09-26 09:41:00,60.3,48.4,29.96,NW,315,4.0,4.6,65,0.00,CLR,,0.00,WeatherDisplay:10.37,2013-09-26 13:41:00,
2013-09-26 09:46:00,60.4,48.6,29.96,NNE,22,2.4,3.5,65,0.00,CLR,,0.00,WeatherDisplay:10.37,2013-09-26 13:46:00,
2013-09-26 09:51:00,60.6,48.8,29.96,ENE,68,6.0,6.0,65,0.00,CLR,,0.00,WeatherDisplay:10.37,2013-09-26 13:51:00,
2013-09-26 09:56:00,60.8,49.0,29.96,NW,315,0.9,4.6,65,0.00,CLR,,0.00,WeatherDisplay:10.37,2013-09-26 13:56:00,
2013-09-26 10:01:00,61.2,49.7,29.96,North,0,2.0,3.5,66,0.00,CLR,,0.00,WeatherDisplay:10.37,2013-09-26 14:01:00,
2013-09-26 10:06:00,61.5,50.1,29.96,NW,315,2.4,2.4,66,0.00,CLR,,0.00,WeatherDisplay:10.37,2013-09-26 14:06:00,
2013-09-26 10:11:00,61.5,49.6,29.96,NW,315,6.9,6.9,65,0.00,CLR,,0.00,WeatherDisplay:10.37,2013-09-26 14:11:00,
2013-09-26 10:16:00,61.7,49.8,29.96,NW,315,1.8,2.3,65,0.00,CLR,,0.00,WeatherDisplay:10.37,2013-09-26 14:16:00,
2013-09-26 10:21:00,61.7,49.8,29.96,ESE,112,1.8,2.3,65,0.00,CLR,,0.00,WeatherDisplay:10.37,2013-09-26 14:21:00,
2013-09-26 10:26:00,61.9,49.6,29.96,West,270,3.6,3.6,64,0.00,CLR,,0.00,WeatherDisplay:10.37,2013-09-26 14:26:00,
2013-09-26 10:31:00,61.9,49.6,29.97,WNW,292,4.3,4.3,64,0.00,CLR,,0.00,WeatherDisplay:10.37,2013-09-26 14:31:00,
2013-09-26 10:36:00,61.5,48.4,29.97,NNW,338,1.8,2.3,62,0.00,CLR,,0.00,WeatherDisplay:10.37,2013-09-26 14:36:00,
2013-09-26 10:41:00,61.5,48.8,29.97,NNW,338,4.3,4.6,63,0.00,CLR,,0.00,WeatherDisplay:10.37,2013-09-26 14:41:00,
2013-09-26 10:46:00,61.9,49.1,29.97,North,0,4.7,4.7,63,0.00,CLR,,0.00,WeatherDisplay:10.37,2013-09-26 14:46:00,
2013-09-26 10:51:00,62.2,50.3,29.97,NNE,22,1.1,3.5,65,0.00,CLR,,0.00,WeatherDisplay:10.37,2013-09-26 14:51:00,
2013-09-26 10:56:00,62.6,50.2,29.97,NW,315,4.0,4.6,64,0.00,CLR,,0.00,WeatherDisplay:10.37,2013-09-26 14:56:00,
2013-09-26 11:01:00,63.0,49.7,29.97,North,0,4.9,4.9,62,0.00,CLR,,0.00,WeatherDisplay:10.37,2013-09-26 15:01:00,
2013-09-26 11:06:00,63.3,50.5,29.97,ENE,68,3.1,3.5,63,0.00,CLR,,0.00,WeatherDisplay:10.37,2013-09-26 15:06:00,
2013-09-26 11:11:00,63.9,51.0,29.97,NNE,22,0.7,1.1,63,0.00,CLR,,0.00,WeatherDisplay:10.37,2013-09-26 15:11:00,
2013-09-26 11:16:00,64.0,51.2,29.97,ENE,68,1.4,5.8,63,0.00,CLR,,0.00,WeatherDisplay:10.37,2013-09-26 15:16:00,
2013-09-26 11:21:00,64.0,50.8,29.97,NNW,338,1.4,2.3,62,0.00,CLR,,0.00,WeatherDisplay:10.37,2013-09-26 15:21:00,
2013-09-26 11:26:00,63.7,50.8,29.97,NW,315,5.4,5.4,63,0.00,CLR,,0.00,WeatherDisplay:10.37,2013-09-26 15:26:00,
2013-09-26 11:31:00,63.3,50.5,29.97,NNW,338,3.6,3.6,63,0.00,CLR,,0.00,WeatherDisplay:10.37,2013-09-26 15:31:00,
2013-09-26 11:36:00,63.1,50.8,29.98,NW,315,1.8,3.5,64,0.00,CLR,,0.00,WeatherDisplay:10.37,2013-09-26 15:36:00,
2013-09-26 11:41:00,63.0,51.0,29.97,North,0,1.1,1.1,65,0.00,CLR,,0.00,WeatherDisplay:10.37,2013-09-26 15:41:00,
2013-09-26 11:46:00,63.1,51.6,29.98,West,270,1.6,2.3,66,0.00,CLR,,0.00,WeatherDisplay:10.37,2013-09-26 15:46:00,
2013-09-26 11:51:00,63.1,51.6,29.98,NNE,22,0.5,2.3,66,0.00,CLR,,0.00,WeatherDisplay:10.37,2013-09-26 15:51:00,
2013-09-26 11:56:00,63.3,51.8,29.97,NNW,338,3.6,3.6,66,0.00,CLR,,0.00,WeatherDisplay:10.37,2013-09-26 15:56:00,
2013-09-26 12:01:00,63.0,51.0,29.97,East,90,0.9,1.1,65,0.00,CLR,,0.00,WeatherDisplay:10.37,2013-09-26 16:01:00,
2013-09-26 12:06:00,62.4,50.5,29.97,NNW,338,5.4,5.8,65,0.00,CLR,,0.00,WeatherDisplay:10.37,2013-09-26 16:06:00,
2013-09-26 12:11:00,62.4,49.7,29.97,NNW,338,1.1,1.1,63,0.00,CLR,,0.00,WeatherDisplay:10.37,2013-09-26 16:11:00,
2013-09-26 12:16:00,62.2,49.5,29.97,North,0,2.0,2.3,63,0.00,CLR,,0.00,WeatherDisplay:10.37,2013-09-26 16:16:00,
2013-09-26 12:21:00,62.6,50.7,29.97,NNW,338,1.6,2.3,65,0.00,CLR,,0.00,WeatherDisplay:10.37,2013-09-26 16:21:00,
2013-09-26 12:26:00,63.3,50.5,29.97,NW,315,2.6,3.5,63,0.00,CLR,,0.00,WeatherDisplay:10.37,2013-09-26 16:26:00,
2013-09-26 12:31:00,63.5,50.2,29.97,NNE,22,6.7,6.7,62,0.00,CLR,,0.00,WeatherDisplay:10.37,2013-09-26 16:31:00,
2013-09-26 12:36:00,63.3,50.9,29.97,NNW,338,1.1,1.1,64,0.00,CLR,,0.00,WeatherDisplay:10.37,2013-09-26 16:36:00,
2013-09-26 12:41:00,63.7,50.8,29.97,NE,45,2.6,2.6,63,0.00,CLR,,0.00,WeatherDisplay:10.37,2013-09-26 16:41:00,
2013-09-26 12:46:00,63.7,50.0,29.97,West,270,4.3,4.3,61,0.00,CLR,,0.00,WeatherDisplay:10.37,2013-09-26 16:46:00,
2013-09-26 12:51:00,63.7,50.8,29.97,ENE,68,4.3,4.3,63,0.00,CLR,,0.00,WeatherDisplay:10.37,2013-09-26 16:51:00,
2013-09-26 12:56:00,63.9,50.6,29.97,SE,135,5.2,5.2,62,0.00,CLR,,0.00,WeatherDisplay:10.37,2013-09-26 16:56:00,
2013-09-26 13:01:00,64.0,50.8,29.97,NW,315,7.1,7.1,62,0.00,CLR,,0.00,WeatherDisplay:10.37,2013-09-26 17:01:00,
2013-09-26 13:06:00,63.7,50.4,29.97,ENE,68,1.1,3.5,62,0.00,CLR,,0.00,WeatherDisplay:10.37,2013-09-26 17:06:00,
2013-09-26 13:11:00,63.9,51.4,29.97,NNE,22,4.3,4.6,64,0.00,CLR,,0.00,WeatherDisplay:10.37,2013-09-26 17:11:00,
2013-09-26 13:17:00,63.7,51.3,29.97,NW,315,1.1,4.6,64,0.00,CLR,,0.00,WeatherDisplay:10.37,2013-09-26 17:17:00,
2013-09-26 13:22:00,63.9,51.4,29.97,NNE,22,1.1,2.3,64,0.00,CLR,,0.00,WeatherDisplay:10.37,2013-09-26 17:22:00,
2013-09-26 13:28:00,63.9,51.4,29.97,North,0,2.6,2.6,64,0.00,CLR,,0.00,WeatherDisplay:10.37,2013-09-26 17:28:00,
2013-09-26 13:33:00,63.7,51.3,29.97,NW,315,2.4,2.4,64,0.00,CLR,,0.00,WeatherDisplay:10.37,2013-09-26 17:33:00,
2013-09-26 14:29:00,62.2,51.1,29.97,NW,315,5.4,5.4,67,0.00,CLR,,0.00,WeatherDisplay:10.37,2013-09-26 18:29:00,
2013-09-26 14:34:00,61.7,50.6,29.97,North,0,2.9,2.9,67,0.00,CLR,,0.00,WeatherDisplay:10.37,2013-09-26 18:34:00,
2013-09-26 14:39:00,61.7,50.6,29.97,NNE,22,4.3,4.6,67,0.00,CLR,,0.00,WeatherDisplay:10.37,2013-09-26 18:39:00,
2013-09-26 14:44:00,61.5,50.1,29.97,NNW,338,4.7,4.7,66,0.00,CLR,,0.00,WeatherDisplay:10.37,2013-09-26 18:44:00,
2013-09-26 14:49:00,61.3,50.3,29.97,NNW,338,2.4,3.5,67,0.00,CLR,,0.00,WeatherDisplay:10.37,2013-09-26 18:49:00,
2013-09-26 14:54:00,61.0,49.5,29.96,West,270,1.1,4.6,66,0.00,CLR,,0.00,WeatherDisplay:10.37,2013-09-26 18:54:00,
2013-09-26 14:59:00,60.8,49.8,29.97,NNE,22,3.3,3.5,67,0.00,CLR,,0.00,WeatherDisplay:10.37,2013-09-26 18:59:00,
2013-09-26 15:04:00,61.0,50.3,29.96,North,0,1.4,2.4,68,0.00,CLR,,0.00,WeatherDisplay:10.37,2013-09-26 19:04:00,
2013-09-26 15:09:00,61.2,50.9,29.96,NE,45,1.1,2.3,69,0.00,CLR,,0.00,WeatherDisplay:10.37,2013-09-26 19:09:00,
2013-09-26 15:14:00,61.2,50.5,29.96,North,0,3.6,3.6,68,0.00,CLR,,0.00,WeatherDisplay:10.37,2013-09-26 19:14:00,
2013-09-26 15:19:00,61.2,50.5,29.96,WNW,292,1.1,4.6,68,0.00,CLR,,0.00,WeatherDisplay:10.37,2013-09-26 19:19:00,
2013-09-26 15:24:00,61.2,50.5,29.96,North,0,3.6,3.6,68,0.00,CLR,,0.00,WeatherDisplay:10.37,2013-09-26 19:24:00,
2013-09-26 15:29:00,61.2,50.5,29.96,West,270,4.3,6.9,68,0.00,CLR,,0.00,WeatherDisplay:10.37,2013-09-26 19:29:00,
2013-09-26 15:34:00,61.2,50.9,29.97,North,0,2.6,2.6,69,0.00,CLR,,0.00,WeatherDisplay:10.37,2013-09-26 19:34:00,
2013-09-26 15:39:00,61.2,50.9,29.97,WNW,292,1.8,4.6,69,0.00,CLR,,0.00,WeatherDisplay:10.37,2013-09-26 19:39:00,
2013-09-26 15:44:00,61.2,50.9,29.97,NNW,338,1.8,2.3,69,0.00,CLR,,0.00,WeatherDisplay:10.37,2013-09-26 19:44:00,
2013-09-26 15:49:00,61.0,50.3,29.97,NW,315,1.1,2.3,68,0.00,CLR,,0.00,WeatherDisplay:10.37,2013-09-26 19:49:00,
2013-09-26 15:54:00,61.0,50.7,29.97,NNE,22,4.3,4.6,69,0.00,CLR,,0.00,WeatherDisplay:10.37,2013-09-26 19:54:00,
2013-09-26 15:59:00,60.8,50.2,29.97,NNW,338,2.9,2.9,68,0.00,CLR,,0.00,WeatherDisplay:10.37,2013-09-26 19:59:00,
2013-09-26 16:04:00,60.4,49.8,29.97,North,0,1.6,2.3,68,0.00,CLR,,0.00,WeatherDisplay:10.37,2013-09-26 20:04:00,
2013-09-26 16:09:00,60.1,49.9,29.97,NW,315,1.4,1.4,69,0.00,CLR,,0.00,WeatherDisplay:10.37,2013-09-26 20:09:00,
2013-09-26 16:14:00,59.9,49.7,29.97,NNW,338,1.1,1.1,69,0.00,CLR,,0.00,WeatherDisplay:10.37,2013-09-26 20:14:00,
2013-09-26 16:19:00,59.7,49.9,29.97,ENE,68,2.9,0.0,70,0.00,CLR,,0.00,WeatherDisplay:10.37,2013-09-26 20:19:00,
2013-09-26 16:24:00,59.7,49.9,29.97,NNE,22,2.6,2.6,70,0.00,CLR,,0.00,WeatherDisplay:10.37,2013-09-26 20:24:00,
2013-09-26 16:29:00,59.7,49.9,29.97,North,0,4.5,4.6,70,0.00,CLR,,0.00,WeatherDisplay:10.37,2013-09-26 20:29:00,
2013-09-26 16:34:00,59.5,50.1,29.97,NW,315,1.1,1.1,71,0.00,CLR,,0.00,WeatherDisplay:10.37,2013-09-26 20:34:00,
2013-09-26 16:39:00,59.7,50.3,29.97,SSE,158,0.0,0.0,71,0.00,CLR,,0.00,WeatherDisplay:10.37,2013-09-26 20:39:00,
2013-09-26 16:44:00,59.9,50.1,29.97,NNE,22,1.1,2.3,70,0.00,CLR,,0.00,WeatherDisplay:10.37,2013-09-26 20:44:00,
2013-09-26 16:49:00,59.9,50.1,29.97,NNE,22,2.6,2.6,70,0.00,CLR,,0.00,WeatherDisplay:10.37,2013-09-26 20:49:00,
2013-09-26 16:54:00,59.7,49.9,29.97,NW,315,1.1,2.3,70,0.00,CLR,,0.00,WeatherDisplay:10.37,2013-09-26 20:54:00,
2013-09-26 16:59:00,59.5,50.1,29.97,NNE,22,2.4,2.4,71,0.00,CLR,,0.00,WeatherDisplay:10.37,2013-09-26 20:59:00,
2013-09-26 17:04:00,59.5,50.5,29.97,North,0,4.3,4.6,72,0.00,CLR,,0.00,WeatherDisplay:10.37,2013-09-26 21:04:00,
2013-09-26 17:09:00,59.4,50.3,29.98,ENE,68,2.4,4.6,72,0.00,CLR,,0.00,WeatherDisplay:10.37,2013-09-26 21:09:00,
2013-09-26 17:14:00,59.4,50.3,29.98,NNE,22,3.1,4.6,72,0.00,CLR,,0.00,WeatherDisplay:10.37,2013-09-26 21:14:00,
2013-09-26 17:19:00,59.2,50.2,29.98,North,0,1.8,3.5,72,0.00,CLR,,0.00,WeatherDisplay:10.37,2013-09-26 21:19:00,
2013-09-26 17:24:00,59.2,50.5,29.98,NNE,22,2.4,3.5,73,0.00,CLR,,0.00,WeatherDisplay:10.37,2013-09-26 21:24:00,
2013-09-26 17:29:00,59.0,50.4,29.98,NNE,22,2.6,2.6,73,0.00,CLR,,0.00,WeatherDisplay:10.37,2013-09-26 21:29:00,
2013-09-26 17:34:00,58.8,50.2,29.98,NNW,338,3.6,3.6,73,0.00,CLR,,0.00,WeatherDisplay:10.37,2013-09-26 21:34:00,
2013-09-26 17:39:00,58.6,50.0,29.98,NNW,338,2.0,2.3,73,0.00,CLR,,0.00,WeatherDisplay:10.37,2013-09-26 21:39:00,
2013-09-26 17:44:00,58.5,49.8,29.98,NE,45,1.1,1.1,73,0.00,CLR,,0.00,WeatherDisplay:10.37,2013-09-26 21:44:00,
2013-09-26 17:49:00,58.3,49.7,29.98,ENE,68,1.1,1.1,73,0.00,CLR,,0.00,WeatherDisplay:10.37,2013-09-26 21:49:00,
2013-09-26 17:54:00,58.1,49.5,29.98,NNE,22,1.8,2.3,73,0.00,CLR,,0.00,WeatherDisplay:10.37,2013-09-26 21:54:00,
2013-09-26 17:59:00,57.9,49.7,29.98,North,0,2.9,2.9,74,0.00,CLR,,0.00,WeatherDisplay:10.37,2013-09-26 21:59:00,
2013-09-26 18:04:00,57.7,49.5,29.98,North,0,0.0,1.1,74,0.00,CLR,,0.00,WeatherDisplay:10.37,2013-09-26 22:04:00,
2013-09-26 18:09:00,57.6,49.3,29.99,ENE,68,1.1,1.1,74,0.00,CLR,,0.00,WeatherDisplay:10.37,2013-09-26 22:09:00,
2013-09-26 18:14:00,57.4,49.2,29.99,North,0,0.0,0.0,74,0.00,CLR,,0.00,WeatherDisplay:10.37,2013-09-26 22:14:00,
2013-09-26 18:19:00,57.2,49.3,29.99,NNE,22,0.2,0.2,75,0.00,CLR,,0.00,WeatherDisplay:10.37,2013-09-26 22:19:00,
2013-09-26 18:24:00,56.8,49.0,29.99,ENE,68,0.0,0.0,75,0.00,CLR,,0.00,WeatherDisplay:10.37,2013-09-26 22:24:00,
2013-09-26 18:29:00,56.7,48.8,29.99,NNE,22,0.0,0.0,75,0.00,CLR,,0.00,WeatherDisplay:10.37,2013-09-26 22:29:00,
2013-09-26 18:34:00,56.5,49.0,29.99,NNW,338,0.5,0.5,76,0.00,CLR,,0.00,WeatherDisplay:10.37,2013-09-26 22:34:00,
2013-09-26 18:39:00,56.1,48.7,29.99,North,0,0.2,0.2,76,0.00,CLR,,0.00,WeatherDisplay:10.37,2013-09-26 22:39:00,
2013-09-26 18:44:00,55.8,48.3,30.00,WNW,292,0.0,0.0,76,0.00,CLR,,0.00,WeatherDisplay:10.37,2013-09-26 22:44:00,
2013-09-26 18:49:00,55.8,48.3,30.00,NE,45,0.0,0.0,76,0.00,CLR,,0.00,WeatherDisplay:10.37,2013-09-26 22:49:00,
2013-09-26 18:54:00,55.4,48.3,30.00,NE,45,0.0,0.0,77,0.00,CLR,,0.00,WeatherDisplay:10.37,2013-09-26 22:54:00,
2013-09-26 18:59:00,55.2,48.1,30.00,NE,45,0.0,0.0,77,0.00,CLR,,0.00,WeatherDisplay:10.37,2013-09-26 22:59:00,
2013-09-26 19:04:00,54.9,47.8,30.00,NE,45,0.0,0.0,77,0.00,CLR,,0.00,WeatherDisplay:10.37,2013-09-26 23:04:00,
2013-09-26 19:09:00,54.7,48.0,30.00,NE,45,0.0,0.0,78,0.00,CLR,,0.00,WeatherDisplay:10.37,2013-09-26 23:09:00,
2013-09-26 19:14:00,54.5,47.8,30.00,NE,45,0.0,0.0,78,0.00,CLR,,0.00,WeatherDisplay:10.37,2013-09-26 23:14:00,
2013-09-26 19:19:00,54.3,47.3,30.00,NE,45,0.0,0.0,77,0.00,CLR,,0.00,WeatherDisplay:10.37,2013-09-26 23:19:00,
2013-09-26 19:24:00,54.0,47.3,30.00,NE,45,0.0,0.0,78,0.00,CLR,,0.00,WeatherDisplay:10.37,2013-09-26 23:24:00,
2013-09-26 19:29:00,53.6,46.9,30.00,NE,45,0.0,0.0,78,0.00,CLR,,0.00,WeatherDisplay:10.37,2013-09-26 23:29:00,
2013-09-26 19:34:00,53.4,46.7,30.01,NE,45,0.0,0.0,78,0.00,CLR,,0.00,WeatherDisplay:10.37,2013-09-26 23:34:00,
2013-09-26 19:39:00,53.4,47.1,30.01,NE,45,0.0,0.0,79,0.00,CLR,,0.00,WeatherDisplay:10.37,2013-09-26 23:39:00,
2013-09-26 19:44:00,53.2,46.9,30.01,NE,45,0.0,0.0,79,0.00,CLR,,0.00,WeatherDisplay:10.37,2013-09-26 23:44:00,
2013-09-26 19:49:00,53.1,46.7,30.01,NE,45,0.0,0.0,79,0.00,CLR,,0.00,WeatherDisplay:10.37,2013-09-26 23:49:00,
2013-09-26 19:54:00,52.9,46.5,30.01,NE,45,0.0,0.0,79,0.00,CLR,,0.00,WeatherDisplay:10.37,2013-09-26 23:54:00,
2013-09-26 19:59:00,52.5,46.2,30.01,NE,45,0.0,0.0,79,0.00,CLR,,0.00,WeatherDisplay:10.37,2013-09-26 23:59:00,
2013-09-26 20:04:00,52.3,46.4,30.01,NE,45,0.0,0.0,80,0.00,CLR,,0.00,WeatherDisplay:10.37,2013-09-27 00:04:00,
2013-09-26 20:10:00,52.2,46.2,30.01,NE,45,0.0,0.0,80,0.00,CLR,,0.00,WeatherDisplay:10.37,2013-09-27 00:10:00,
2013-09-26 20:15:00,51.8,45.8,30.01,NE,45,0.0,0.0,80,0.00,CLR,,0.00,WeatherDisplay:10.37,2013-09-27 00:15:00,
2013-09-26 20:20:00,51.6,45.7,30.02,NE,45,0.0,0.0,80,0.00,CLR,,0.00,WeatherDisplay:10.37,2013-09-27 00:20:00,
2013-09-26 20:25:00,51.4,45.5,30.02,NE,45,0.0,0.0,80,0.00,CLR,,0.00,WeatherDisplay:10.37,2013-09-27 00:25:00,
2013-09-26 20:30:00,51.1,45.5,30.02,NE,45,0.0,0.0,81,0.00,CLR,,0.00,WeatherDisplay:10.37,2013-09-27 00:30:00,
2013-09-26 20:35:00,51.1,45.5,30.02,NE,45,0.0,0.0,81,0.00,CLR,,0.00,WeatherDisplay:10.37,2013-09-27 00:35:00,
2013-09-26 20:40:00,50.7,45.1,30.02,NNE,22,0.0,0.0,81,0.00,CLR,,0.00,WeatherDisplay:10.37,2013-09-27 00:40:00,
2013-09-26 20:45:00,50.7,45.1,30.01,NNE,22,0.0,0.0,81,0.00,CLR,,0.00,WeatherDisplay:10.37,2013-09-27 00:45:00,
2013-09-26 20:50:00,50.5,45.2,30.02,NNE,22,0.0,0.0,82,0.00,CLR,,0.00,WeatherDisplay:10.37,2013-09-27 00:50:00,
2013-09-26 20:55:00,50.5,45.2,30.02,NNE,22,0.0,0.0,82,0.00,CLR,,0.00,WeatherDisplay:10.37,2013-09-27 00:55:00,
2013-09-26 21:00:00,50.4,45.1,30.02,NNE,22,0.0,0.0,82,0.00,CLR,,0.00,WeatherDisplay:10.37,2013-09-27 01:00:00,
2013-09-26 21:05:00,50.4,45.1,30.02,NNE,22,0.0,0.0,82,0.00,CLR,,0.00,WeatherDisplay:10.37,2013-09-27 01:05:00,
2013-09-26 21:11:00,50.4,45.1,30.02,NNE,22,0.0,0.0,82,0.00,CLR,,0.00,WeatherDisplay:10.37,2013-09-27 01:11:00,
2013-09-26 21:16:00,50.2,44.9,30.03,NNE,22,0.0,0.0,82,0.00,CLR,,0.00,WeatherDisplay:10.37,2013-09-27 01:16:00,
2013-09-26 21:21:00,50.4,45.1,30.03,NNE,22,0.0,0.0,82,0.00,CLR,,0.00,WeatherDisplay:10.37,2013-09-27 01:21:00,
2013-09-26 21:26:00,50.4,45.4,30.03,NNE,22,0.0,0.0,83,0.00,CLR,,0.00,WeatherDisplay:10.37,2013-09-27 01:26:00,
2013-09-26 21:31:00,50.4,45.4,30.03,NNE,22,0.0,0.0,83,0.00,CLR,,0.00,WeatherDisplay:10.37,2013-09-27 01:31:00,
2013-09-26 21:36:00,50.5,45.6,30.03,NNE,22,0.0,0.0,83,0.00,CLR,,0.00,WeatherDisplay:10.37,2013-09-27 01:36:00,
2013-09-26 21:41:00,50.7,46.1,30.03,NNE,22,0.0,0.0,84,0.00,CLR,,0.00,WeatherDisplay:10.37,2013-09-27 01:41:00,
2013-09-26 21:46:00,50.7,46.1,30.03,NE,45,0.0,0.0,84,0.00,CLR,,0.00,WeatherDisplay:10.37,2013-09-27 01:46:00,
2013-09-26 21:51:00,50.9,46.2,30.03,NE,45,0.0,0.0,84,0.00,CLR,,0.00,WeatherDisplay:10.37,2013-09-27 01:51:00,
2013-09-26 21:56:00,50.9,46.2,30.03,NE,45,0.0,0.0,84,0.00,CLR,,0.00,WeatherDisplay:10.37,2013-09-27 01:56:00,
2013-09-26 22:01:00,51.1,46.4,30.03,NE,45,0.0,0.0,84,0.00,CLR,,0.00,WeatherDisplay:10.37,2013-09-27 02:01:00,
2013-09-26 22:06:00,51.1,46.4,30.03,NE,45,0.0,0.0,84,0.00,CLR,,0.00,WeatherDisplay:10.37,2013-09-27 02:06:00,
2013-09-26 22:11:00,51.3,46.9,30.03,NE,45,0.0,0.0,85,0.00,CLR,,0.00,WeatherDisplay:10.37,2013-09-27 02:11:00,
2013-09-26 22:16:00,51.4,47.1,30.03,NE,45,0.0,0.0,85,0.00,CLR,,0.00,WeatherDisplay:10.37,2013-09-27 02:16:00,
2013-09-26 22:21:00,51.4,47.1,30.03,NE,45,0.0,0.0,85,0.00,CLR,,0.00,WeatherDisplay:10.37,2013-09-27 02:21:00,
2013-09-26 22:26:00,51.4,47.1,30.03,NE,45,0.0,0.0,85,0.00,CLR,,0.00,WeatherDisplay:10.37,2013-09-27 02:26:00,
2013-09-26 22:31:00,51.4,47.1,30.03,NE,45,0.0,0.0,85,0.00,CLR,,0.00,WeatherDisplay:10.37,2013-09-27 02:31:00,
2013-09-26 22:36:00,51.6,47.3,30.03,NE,45,0.0,0.0,85,0.00,CLR,,0.00,WeatherDisplay:10.37,2013-09-27 02:36:00,
2013-09-26 22:41:00,51.6,47.3,30.03,NE,45,0.0,0.0,85,0.00,CLR,,0.00,WeatherDisplay:10.37,2013-09-27 02:41:00,
2013-09-26 22:46:00,51.8,47.4,30.03,NE,45,0.0,0.0,85,0.00,CLR,,0.00,WeatherDisplay:10.37,2013-09-27 02:46:00,
2013-09-26 22:51:00,51.8,47.4,30.03,NE,45,0.0,0.0,85,0.00,CLR,,0.00,WeatherDisplay:10.37,2013-09-27 02:51:00,
2013-09-26 22:56:00,52.0,47.6,30.03,NE,45,0.0,0.0,85,0.00,CLR,,0.00,WeatherDisplay:10.37,2013-09-27 02:56:00,
2013-09-26 23:01:00,52.2,48.1,30.03,NE,45,0.5,0.5,86,0.00,CLR,,0.00,WeatherDisplay:10.37,2013-09-27 03:01:00,
2013-09-26 23:06:00,52.2,48.1,30.03,NE,45,0.0,0.0,86,0.00,CLR,,0.00,WeatherDisplay:10.37,2013-09-27 03:06:00,
2013-09-26 23:11:00,52.3,48.3,30.03,NE,45,0.0,0.0,86,0.00,CLR,,0.00,WeatherDisplay:10.37,2013-09-27 03:11:00,
2013-09-26 23:16:00,52.5,48.5,30.03,NE,45,0.0,0.0,86,0.00,CLR,,0.00,WeatherDisplay:10.37,2013-09-27 03:16:00,
2013-09-26 23:21:00,52.5,48.5,30.03,NE,45,0.0,0.0,86,0.00,CLR,,0.00,WeatherDisplay:10.37,2013-09-27 03:21:00,
2013-09-26 23:26:00,52.7,48.6,30.03,NE,45,0.0,0.0,86,0.00,CLR,,0.00,WeatherDisplay:10.37,2013-09-27 03:26:00,
2013-09-26 23:31:00,52.9,48.8,30.03,NE,45,0.0,0.0,86,0.00,CLR,,0.00,WeatherDisplay:10.37,2013-09-27 03:31:00,
2013-09-26 23:36:00,52.9,48.8,30.03,NE,45,0.0,0.0,86,0.00,CLR,,0.00,WeatherDisplay:10.37,2013-09-27 03:36:00,
2013-09-26 23:41:00,53.1,49.0,30.03,NE,45,0.0,0.0,86,0.00,CLR,,0.00,WeatherDisplay:10.37,2013-09-27 03:41:00,
2013-09-26 23:46:00,53.1,49.0,30.03,NE,45,0.0,0.0,86,0.00,CLR,,0.00,WeatherDisplay:10.37,2013-09-27 03:46:00,
2013-09-26 23:51:00,53.2,49.2,30.03,NE,45,0.0,0.0,86,0.00,CLR,,0.00,WeatherDisplay:10.37,2013-09-27 03:51:00,
2013-09-26 23:56:00,53.2,49.2,30.03,NE,45,0.0,0.0,86,0.00,CLR,,0.00,WeatherDisplay:10.37,2013-09-27 03:56:00,